OV1-5 DEB, 5361

Orbit data source: Space-Track

OV1-5 DEB, 5361 is space debris in LEO originally from a launch on Wed, 30 Mar 1966 UTC launched from the Air Force Western Test Range (AFWTR). Debris objects in space refer to the collection of defunct objects orbiting the Earth. Examples of debris include non-operational satellites, rocket bodies, and fragments generated from explosions, collisions, or faulty payload assembly.

Loading next visibility...
Identifier
5361, 1966-025F
Orbit
LEO
Last TLE update
12 hours ago
Origin
Flag of USAir Force Systems Command (OAR legacy assets) (US)
Manufacturer
Unknown
Mission
Spacecraft
Bus & Motor
Unknown
Mass
Unknown
Launch date (UTC)
1966-03-30 (59 years ago)
Launch vehicle
Unknown
Launch site
Air Force Western Test Range (AFWTR)
Object type
Payload
Rocket body
Debris
Shape & HBR
Unknown
Radar Cross Section
Small (<0.1 m²)

Expand to show TLE details & history

TLE from 12 hours ago
0 OV1-5 DEB
1 05361U 66025F   25182.70672398  .00005942  00000-0  14535-2 0  9994
2 05361 144.6120 159.7189 0024403 286.4856  73.3162 14.48827045317845
Epoch: 2025-07-01T16:57Z
TLE epoch observation values (Epoch: 2025-07-01T16:57:40.951Z)
Latitude
-0.00005°
Longitude
-14.69999°
Altitude
723.525 km
Speed
7.498 km/s
True Right ascension
10h 38m 52s
True Declination
0° 00' 00"
Sunlit
Object was in daylight at epoch
Visualization orbit readout
Latitude
11.05393°
Longitude
-175.96604°
Altitude
738.774 km
Speed
7.483 km/s
Apparent Right ascension
01h 54m 44s
Apparent Declination
-16° 02' 02"
Sunlit
Object is in daylight
Visualization observer readout
Local Sidereal Time
16:58:19
Azimuth
72.516° E
Elevation
-43.653°
Doppler factor
1
Orbital elements
Apogee altitude
749.919 km
Perigee altitude
715.214 km
Semi-major axis
7,110.704 km
Eccentricity
0.00244
Inclination
144.612°
RAAN
159.7189°
Arg. of periapsis
286.4856°
True anomaly
Unknown
Mean anomaly
73.3162°
Eccentric anomaly
Unknown
Mean motion
3.61971 °/min
Orbital period
99.46 mins
BSTAR
0.0014535
Loading maneuver chart data...
Loading SW <> Apogee altitude chart data...
Loading historical data...
Loading historical data...
Loading historical data...
Loading historical data...
Loading historical data...
Loading historical data...
Loading historical data...

OV1-5 DEB Visibility forecast

Observer location: undefined°, undefined°

Span
Click to sort rows by Start time (UTC) header in descending order
Start Az.
Max El. time (UTC)
Max El. Az.
Max El.
End time (UTC)
End Az.
7 mins2025-07-02 14:56:46.541Z108.439° ESE2025-07-02 14:59:46.541Z160.79° S27.226°2025-07-02 15:03:46.541Z222.413° SW
7 mins2025-07-02 16:30:46.541Z104.042° ESE2025-07-02 16:33:46.541Z156.881° SSE36.725°2025-07-02 16:37:46.541Z245.207° WSW
7 mins2025-07-02 18:05:46.541Z122.654° SE2025-07-02 18:08:46.541Z200.719° SSW36.507°2025-07-02 18:12:46.541Z260.836° W
6 mins2025-07-02 19:40:46.541Z158.538° S2025-07-02 19:42:46.541Z197.903° SSW26.036°2025-07-02 19:46:46.541Z258.513° W
|